Location: Yellowknife
(62.4500°N, 114.3500°W)
Time: 21:37:22
(UTC-06:00)

Envisat - Visible Passes

Search period start: 20 April 2018 00:00
Search period end: 30 April 2018 00:00
Orbit: 764 x 766 km, 98.2° (Epoch: 20 April)

Date Brightness Start Highest point End Pass type
(mag) Time Alt. Az. Time Alt. Az. Time Alt. Az.
20 Apr 5.5 22:10:22 10° SW 22:14:20 22° W 22:18:18 10° NW visible
22 Apr 5.7 22:37:15 10° WSW 22:40:19 16° W 22:43:23 10° NW visible
24 Apr 6.1 23:05:10 10° W 23:06:24 11° WNW 23:07:39 10° WNW visible
25 Apr 5.6 22:25:30 10° SW 22:28:59 18° W 22:32:29 10° NW visible
27 Apr 5.9 22:52:47 10° WSW 22:55:02 13° WNW 22:57:15 10° NW visible
